N864HD 2NC0-KBOS

Flight info

Callsign N864HD
Flight time 2h 15m
Altitude 39000
Route YICUT Q40 MAULS Q34 RBV Q22 LAURN Q419 JFK ROBUC3
Aircraft P180/L-SBDFGM3RWXY/LB1

Departure

Time 2026-05-04 20:41
Airport Mountain Air Airport (2NC0)

Arrival

Time 2026-05-04 22:57
Airport Boston Logan International Airport (KBOS)
Time Latitude Longitude Altitude Speed Heading
2026-05-04 20:04 35.87116 -82.34450 4414 ft 0 kts 289°
2026-05-04 20:06 35.87116 -82.34449 4414 ft 0 kts 289°
2026-05-04 20:16 35.87116 -82.34448 4420 ft 0 kts 288°
2026-05-04 20:26 35.87116 -82.34447 4421 ft 0 kts 288°
2026-05-04 20:33 35.87115 -82.34447 4421 ft 0 kts 287°
2026-05-04 20:37 35.87108 -82.34456 4420 ft 3 kts 194°
2026-05-04 20:37 35.87068 -82.34424 4418 ft 12 kts 129°
2026-05-04 20:37 35.86977 -82.34343 4409 ft 22 kts 137°
2026-05-04 20:38 35.86835 -82.34176 4388 ft 28 kts 135°
2026-05-04 20:38 35.86732 -82.34053 4385 ft 18 kts 136°
2026-05-04 20:38 35.86659 -82.33960 4386 ft 6 kts 112°
2026-05-04 20:38 35.86642 -82.33922 4384 ft 2 kts 146°
2026-05-04 20:40 35.86641 -82.33922 4384 ft 1 kts 148°
2026-05-04 20:40 35.86637 -82.33921 4385 ft 0 kts 166°
2026-05-04 20:40 35.86629 -82.33929 4385 ft 2 kts 273°
2026-05-04 20:40 35.86632 -82.33933 4385 ft 0 kts 314°
2026-05-04 20:41 35.86688 -82.34001 4386 ft 51 kts 316°
2026-05-04 20:41 35.87202 -82.34610 4447 ft 141 kts 313°
2026-05-04 20:41 35.87970 -82.35448 5162 ft 153 kts 314°
2026-05-04 20:41 35.88808 -82.36435 5743 ft 184 kts 311°
2026-05-04 20:42 35.89768 -82.37585 6710 ft 188 kts 311°
2026-05-04 20:42 35.90683 -82.38663 7919 ft 176 kts 312°
2026-05-04 20:42 35.91559 -82.39654 8930 ft 172 kts 312°
2026-05-04 20:42 35.92471 -82.40649 9617 ft 177 kts 313°
2026-05-04 20:43 35.93415 -82.41640 10279 ft 179 kts 313°
2026-05-04 20:43 35.94368 -82.42630 10983 ft 177 kts 313°
2026-05-04 20:43 35.95310 -82.43595 11654 ft 175 kts 313°
2026-05-04 20:43 35.96255 -82.44550 12261 ft 177 kts 313°
2026-05-04 20:44 35.97209 -82.45531 12888 ft 179 kts 314°
2026-05-04 20:44 35.98398 -82.46058 13484 ft 196 kts 353°
2026-05-04 20:44 35.99771 -82.45736 13984 ft 208 kts 15°
2026-05-04 20:44 36.00949 -82.44618 14460 ft 218 kts 39°
2026-05-04 20:45 36.02019 -82.43275 14895 ft 219 kts 40°
2026-05-04 20:45 36.03089 -82.41933 15374 ft 219 kts 39°
2026-05-04 20:45 36.04167 -82.40602 15846 ft 219 kts 39°
2026-05-04 20:45 36.05242 -82.39277 16308 ft 219 kts 39°
2026-05-04 20:46 36.06314 -82.37952 16735 ft 221 kts 39°
2026-05-04 20:46 36.07399 -82.36607 17215 ft 221 kts 39°
2026-05-04 20:46 36.08487 -82.35258 17666 ft 222 kts 39°
2026-05-04 20:46 36.09603 -82.33874 18118 ft 221 kts 39°
2026-05-04 20:47 36.10688 -82.32527 18498 ft 222 kts 39°
2026-05-04 20:47 36.11789 -82.31159 18782 ft 225 kts 39°
2026-05-04 20:47 36.12819 -82.29878 19130 ft 226 kts 38°
2026-05-04 20:47 36.13935 -82.28487 19474 ft 229 kts 39°
2026-05-04 20:48 36.15064 -82.27078 19829 ft 231 kts 39°
2026-05-04 20:48 36.16202 -82.25662 20196 ft 232 kts 38°
2026-05-04 20:48 36.17344 -82.24244 20554 ft 233 kts 38°
2026-05-04 20:48 36.18495 -82.22816 20931 ft 235 kts 38°
2026-05-04 20:49 36.19656 -82.21371 21285 ft 238 kts 38°
2026-05-04 20:49 36.20827 -82.19913 21647 ft 240 kts 38°
2026-05-04 20:49 36.22005 -82.18444 22030 ft 241 kts 38°
2026-05-04 20:49 36.23198 -82.16957 22399 ft 244 kts 38°
2026-05-04 20:50 36.24380 -82.15483 22779 ft 245 kts 38°
2026-05-04 20:50 36.25592 -82.13973 23157 ft 248 kts 38°
2026-05-04 20:50 36.26814 -82.12449 23517 ft 250 kts 38°
2026-05-04 20:50 36.28071 -82.10884 23628 ft 264 kts 38°
2026-05-04 20:51 36.29410 -82.09219 23679 ft 279 kts 39°
2026-05-04 20:51 36.30780 -82.07498 23964 ft 281 kts 39°
2026-05-04 20:51 36.32153 -82.05771 24274 ft 282 kts 39°
2026-05-04 20:51 36.33542 -82.04037 24567 ft 284 kts 39°
2026-05-04 20:52 36.34939 -82.02292 24879 ft 285 kts 39°
2026-05-04 20:52 36.36338 -82.00540 25202 ft 287 kts 39°
2026-05-04 20:52 36.37746 -81.98774 25539 ft 288 kts 39°
2026-05-04 20:52 36.39158 -81.97002 25856 ft 290 kts 39°
2026-05-04 20:53 36.40580 -81.95218 26217 ft 291 kts 38°
2026-05-04 20:53 36.42010 -81.93425 26560 ft 293 kts 38°
2026-05-04 20:53 36.43446 -81.91621 26907 ft 295 kts 38°
2026-05-04 20:53 36.44405 -81.90417 27134 ft 296 kts 38°
2026-05-04 20:54 36.46332 -81.87994 27587 ft 298 kts 38°
2026-05-04 20:54 36.47318 -81.86752 27822 ft 299 kts 38°
2026-05-04 20:54 36.48765 -81.84931 28163 ft 300 kts 38°
2026-05-04 20:54 36.50238 -81.83076 28514 ft 302 kts 37°
2026-05-04 20:55 36.52204 -81.80600 29003 ft 304 kts 37°
2026-05-04 20:55 36.53211 -81.79331 29241 ft 305 kts 37°
2026-05-04 20:55 36.54707 -81.77443 29622 ft 307 kts 37°
2026-05-04 20:55 36.56194 -81.75567 29992 ft 309 kts 37°
2026-05-04 20:56 36.57707 -81.73656 30330 ft 311 kts 37°
2026-05-04 20:56 36.59225 -81.71737 30676 ft 311 kts 37°
2026-05-04 20:56 36.60737 -81.69823 31101 ft 309 kts 36°
2026-05-04 20:56 36.62245 -81.67915 31463 ft 309 kts 36°
2026-05-04 20:57 36.63755 -81.66010 31838 ft 309 kts 36°
2026-05-04 20:57 36.65267 -81.64112 32241 ft 308 kts 36°
2026-05-04 20:57 36.66773 -81.62208 32636 ft 308 kts 36°
2026-05-04 20:57 36.68275 -81.60298 33034 ft 307 kts 36°
2026-05-04 20:58 36.69770 -81.58396 33419 ft 307 kts 36°
2026-05-04 20:58 36.71266 -81.56499 33809 ft 307 kts 35°
2026-05-04 20:58 36.72760 -81.54603 34152 ft 307 kts 36°
2026-05-04 20:58 36.74255 -81.52702 34475 ft 306 kts 36°
2026-05-04 20:59 36.75744 -81.50807 34786 ft 306 kts 36°
2026-05-04 20:59 36.77213 -81.48936 35079 ft 305 kts 36°
2026-05-04 20:59 36.78702 -81.47041 35340 ft 306 kts 36°
2026-05-04 20:59 36.80194 -81.45141 35640 ft 305 kts 36°
2026-05-04 21:00 36.81677 -81.43248 35924 ft 305 kts 36°
2026-05-04 21:00 36.83159 -81.41358 36186 ft 305 kts 37°
2026-05-04 21:00 36.84550 -81.39334 36429 ft 311 kts 47°
2026-05-04 21:00 36.85707 -81.37023 36678 ft 314 kts 52°
2026-05-04 21:01 36.86842 -81.34687 36911 ft 313 kts 51°
2026-05-04 21:01 36.87988 -81.32373 37129 ft 313 kts 51°
2026-05-04 21:01 36.89133 -81.30054 37338 ft 314 kts 51°
2026-05-04 21:01 36.90271 -81.27730 37647 ft 313 kts 51°
2026-05-04 21:02 36.91405 -81.25409 37900 ft 313 kts 51°
2026-05-04 21:02 36.92527 -81.23118 38120 ft 313 kts 51°
2026-05-04 21:02 36.93660 -81.20803 38360 ft 312 kts 52°
2026-05-04 21:02 36.94793 -81.18487 38569 ft 312 kts 52°
2026-05-04 21:03 36.95923 -81.16172 38762 ft 312 kts 52°
2026-05-04 21:03 36.97053 -81.13859 38908 ft 312 kts 52°
2026-05-04 21:03 36.99338 -81.09178 38989 ft 318 kts 52°
2026-05-04 21:04 37.01658 -81.04416 39009 ft 323 kts 52°
2026-05-04 21:04 37.04015 -80.99558 39004 ft 328 kts 52°
2026-05-04 21:05 37.06401 -80.94648 39005 ft 332 kts 52°
2026-05-04 21:05 37.08815 -80.89670 39005 ft 336 kts 53°
2026-05-04 21:06 37.11237 -80.84666 39004 ft 339 kts 53°
2026-05-04 21:06 37.13692 -80.79589 39009 ft 342 kts 53°
2026-05-04 21:07 37.16160 -80.74476 39011 ft 344 kts 53°
2026-05-04 21:07 37.18641 -80.69329 39006 ft 345 kts 53°
2026-05-04 21:08 37.21129 -80.64157 39008 ft 347 kts 53°
2026-05-04 21:08 37.23626 -80.58961 39002 ft 349 kts 53°
2026-05-04 21:09 37.26135 -80.53731 39035 ft 350 kts 53°
2026-05-04 21:09 37.28713 -80.48555 39036 ft 349 kts 51°
2026-05-04 21:10 37.31391 -80.43441 39031 ft 351 kts 51°
2026-05-04 21:10 37.34061 -80.38308 39028 ft 351 kts 51°
2026-05-04 21:11 37.36743 -80.33164 39023 ft 352 kts 51°
2026-05-04 21:11 37.39426 -80.27996 39014 ft 353 kts 51°
2026-05-04 21:12 37.42107 -80.22833 38989 ft 353 kts 52°
2026-05-04 21:12 37.44784 -80.17662 38987 ft 353 kts 51°
2026-05-04 21:13 37.47448 -80.12515 38985 ft 354 kts 52°
2026-05-04 21:13 37.50131 -80.07318 38987 ft 353 kts 52°
2026-05-04 21:14 37.52811 -80.02122 38986 ft 353 kts 52°
2026-05-04 21:14 37.55485 -79.96928 38984 ft 353 kts 52°
2026-05-04 21:15 37.58178 -79.91689 38981 ft 354 kts 52°
2026-05-04 21:15 37.60833 -79.86516 38990 ft 353 kts 52°
2026-05-04 21:16 37.63497 -79.81318 38983 ft 352 kts 52°
2026-05-04 21:16 37.66152 -79.76127 38985 ft 352 kts 52°
2026-05-04 21:17 37.68803 -79.70940 38965 ft 352 kts 52°
2026-05-04 21:17 37.71448 -79.65750 38956 ft 351 kts 52°
2026-05-04 21:18 37.74088 -79.60568 38953 ft 350 kts 52°
2026-05-04 21:18 37.76720 -79.55392 38957 ft 349 kts 52°
2026-05-04 21:19 37.79344 -79.50222 38945 ft 349 kts 52°
2026-05-04 21:19 37.81960 -79.45060 38950 ft 348 kts 52°
2026-05-04 21:20 37.84573 -79.39896 38953 ft 348 kts 52°
2026-05-04 21:20 37.87118 -79.34679 38952 ft 351 kts 59°
2026-05-04 21:21 37.88556 -79.28731 38955 ft 358 kts 79°
2026-05-04 21:21 37.89273 -79.22502 38960 ft 357 kts 78°
2026-05-04 21:22 37.90010 -79.16309 38956 ft 357 kts 79°
2026-05-04 21:22 37.90730 -79.10083 38964 ft 357 kts 79°
2026-05-04 21:23 37.91455 -79.03855 38961 ft 357 kts 79°
2026-05-04 21:23 37.92172 -78.97637 38964 ft 356 kts 79°
2026-05-04 21:24 37.92887 -78.91421 38963 ft 355 kts 79°
2026-05-04 21:24 37.93595 -78.85232 38956 ft 354 kts 79°
2026-05-04 21:25 37.94294 -78.79093 38957 ft 354 kts 79°
2026-05-04 21:25 37.94995 -78.72912 38952 ft 355 kts 79°
2026-05-04 21:26 37.95693 -78.66720 38949 ft 354 kts 79°
2026-05-04 21:26 37.96388 -78.60530 38944 ft 354 kts 79°
2026-05-04 21:27 37.97079 -78.54339 38945 ft 355 kts 79°
2026-05-04 21:27 37.97768 -78.48139 38942 ft 355 kts 79°
2026-05-04 21:28 37.98450 -78.41976 38943 ft 355 kts 80°
2026-05-04 21:28 37.99132 -78.35781 38944 ft 355 kts 80°
2026-05-04 21:29 37.99811 -78.29581 38948 ft 355 kts 80°
2026-05-04 21:29 38.00487 -78.23376 38942 ft 355 kts 80°
2026-05-04 21:30 38.01247 -78.17197 38938 ft 353 kts 73°
2026-05-04 21:30 38.02055 -78.14275 38937 ft 350 kts 62°
2026-05-04 21:30 38.03219 -78.11584 38954 ft 347 kts 53°
2026-05-04 21:31 38.07111 -78.03830 38951 ft 347 kts 53°
2026-05-04 21:32 38.09685 -77.98692 38952 ft 347 kts 53°
2026-05-04 21:32 38.12267 -77.93518 38954 ft 347 kts 53°
2026-05-04 21:33 38.14847 -77.88342 38954 ft 347 kts 53°
2026-05-04 21:33 38.17427 -77.83160 38942 ft 347 kts 53°
2026-05-04 21:34 38.20005 -77.77972 38944 ft 347 kts 53°
2026-05-04 21:34 38.22579 -77.72784 38938 ft 346 kts 53°
2026-05-04 21:35 38.24713 -77.68476 38934 ft 346 kts 53°
2026-05-04 21:35 38.27280 -77.63288 38929 ft 346 kts 53°
2026-05-04 21:36 38.29867 -77.58052 38925 ft 346 kts 53°
2026-05-04 21:36 38.32428 -77.52858 38926 ft 346 kts 53°
2026-05-04 21:37 38.34991 -77.47652 38942 ft 347 kts 53°
2026-05-04 21:37 38.37549 -77.42448 38940 ft 346 kts 53°
2026-05-04 21:38 38.40112 -77.37232 38923 ft 346 kts 52°
2026-05-04 21:38 38.43168 -77.32576 38935 ft 342 kts 43°
2026-05-04 21:39 38.46317 -77.28019 38935 ft 342 kts 43°
2026-05-04 21:39 38.49480 -77.23468 38932 ft 342 kts 43°
2026-05-04 21:40 38.52639 -77.18907 38933 ft 343 kts 44°
2026-05-04 21:40 38.55795 -77.14346 38930 ft 343 kts 44°
2026-05-04 21:41 38.58955 -77.09773 38898 ft 343 kts 44°
2026-05-04 21:41 38.62099 -77.05215 38895 ft 343 kts 44°
2026-05-04 21:42 38.65265 -77.00621 38897 ft 344 kts 44°
2026-05-04 21:42 38.68444 -76.95998 38919 ft 344 kts 44°
2026-05-04 21:43 38.71585 -76.91426 38913 ft 344 kts 44°
2026-05-04 21:43 38.74751 -76.86810 38915 ft 344 kts 44°
2026-05-04 21:44 38.77908 -76.82202 38916 ft 344 kts 44°
2026-05-04 21:44 38.81069 -76.77579 38914 ft 344 kts 44°
2026-05-04 21:45 38.84222 -76.72961 38918 ft 344 kts 44°
2026-05-04 21:45 38.87378 -76.68333 38923 ft 344 kts 44°
2026-05-04 21:46 38.90533 -76.63701 38926 ft 344 kts 44°
2026-05-04 21:46 38.93680 -76.59071 38936 ft 345 kts 44°
2026-05-04 21:47 38.96837 -76.54421 38939 ft 345 kts 44°
2026-05-04 21:47 38.99988 -76.49773 38941 ft 345 kts 44°
2026-05-04 21:48 39.03141 -76.45116 38929 ft 345 kts 44°
2026-05-04 21:48 39.06286 -76.40462 38928 ft 345 kts 44°
2026-05-04 21:49 39.09456 -76.35764 38946 ft 345 kts 44°
2026-05-04 21:49 39.12584 -76.31123 38940 ft 345 kts 44°
2026-05-04 21:50 39.15725 -76.26455 38947 ft 344 kts 44°
2026-05-04 21:50 39.18861 -76.21787 38941 ft 344 kts 44°
2026-05-04 21:51 39.21993 -76.17119 38941 ft 344 kts 44°
2026-05-04 21:51 39.25123 -76.12446 38936 ft 344 kts 44°
2026-05-04 21:52 39.28250 -76.07773 38931 ft 344 kts 45°
2026-05-04 21:52 39.31375 -76.03095 38931 ft 343 kts 45°
2026-05-04 21:53 39.34492 -75.98420 38929 ft 343 kts 45°
2026-05-04 21:53 39.37606 -75.93743 38930 ft 343 kts 45°
2026-05-04 21:54 39.40731 -75.89046 38934 ft 344 kts 45°
2026-05-04 21:54 39.43858 -75.84336 38938 ft 344 kts 44°
2026-05-04 21:55 39.46983 -75.79624 38936 ft 344 kts 44°
2026-05-04 21:55 39.50096 -75.74921 38936 ft 344 kts 44°
2026-05-04 21:56 39.53202 -75.70222 38936 ft 343 kts 44°
2026-05-04 21:56 39.56305 -75.65521 38934 ft 343 kts 45°
2026-05-04 21:57 39.59408 -75.60812 38933 ft 343 kts 45°
2026-05-04 21:57 39.62502 -75.56111 38936 ft 343 kts 45°
2026-05-04 21:58 39.65600 -75.51389 38922 ft 343 kts 46°
2026-05-04 21:58 39.68439 -75.46383 38925 ft 345 kts 49°
2026-05-04 21:59 39.71277 -75.41361 38924 ft 345 kts 49°
2026-05-04 21:59 39.74128 -75.36281 38926 ft 345 kts 49°
2026-05-04 22:00 39.76929 -75.31288 38925 ft 345 kts 49°
2026-05-04 22:00 39.79755 -75.26244 38924 ft 345 kts 49°
2026-05-04 22:01 39.82579 -75.21193 38926 ft 345 kts 49°
2026-05-04 22:01 39.85422 -75.16102 38912 ft 345 kts 49°
2026-05-04 22:02 39.88232 -75.11063 38916 ft 345 kts 49°
2026-05-04 22:02 39.91052 -75.05995 38924 ft 346 kts 49°
2026-05-04 22:03 39.93872 -75.00920 38922 ft 346 kts 49°
2026-05-04 22:03 39.96235 -74.96661 38923 ft 346 kts 49°
2026-05-04 22:04 39.98926 -74.91495 38927 ft 347 kts 51°
2026-05-04 22:04 40.01633 -74.86197 38923 ft 347 kts 51°
2026-05-04 22:05 40.04292 -74.80982 38925 ft 347 kts 51°
2026-05-04 22:05 40.06967 -74.75724 38922 ft 348 kts 51°
2026-05-04 22:06 40.09643 -74.70455 38923 ft 348 kts 51°
2026-05-04 22:06 40.12313 -74.65190 38925 ft 348 kts 51°
2026-05-04 22:07 40.14985 -74.59914 38924 ft 348 kts 52°
2026-05-04 22:07 40.17654 -74.54633 38920 ft 348 kts 51°
2026-05-04 22:08 40.20460 -74.49510 38916 ft 343 kts 41°
2026-05-04 22:08 40.24032 -74.45477 38913 ft 338 kts 33°
2026-05-04 22:09 40.27675 -74.41570 38916 ft 339 kts 33°
2026-05-04 22:09 40.31306 -74.37693 38924 ft 339 kts 33°
2026-05-04 22:10 40.34983 -74.33757 38921 ft 339 kts 33°
2026-05-04 22:10 40.38616 -74.29859 38921 ft 339 kts 33°
2026-05-04 22:11 40.42272 -74.25935 38917 ft 339 kts 33°
2026-05-04 22:11 40.45927 -74.22006 38904 ft 340 kts 33°
2026-05-04 22:12 40.49574 -74.18075 38903 ft 341 kts 33°
2026-05-04 22:12 40.53175 -74.13974 38864 ft 348 kts 41°
2026-05-04 22:12 40.54700 -74.11425 38495 ft 366 kts 52°
2026-05-04 22:13 40.55939 -74.08407 37961 ft 381 kts 63°
2026-05-04 22:13 40.56812 -74.05067 37474 ft 391 kts 70°
2026-05-04 22:13 40.57598 -74.01602 36951 ft 398 kts 69°
2026-05-04 22:13 40.58418 -73.98085 36421 ft 405 kts 69°
2026-05-04 22:14 40.59265 -73.94512 35879 ft 412 kts 69°
2026-05-04 22:14 40.60112 -73.90884 35346 ft 418 kts 69°
2026-05-04 22:14 40.60962 -73.87197 34790 ft 423 kts 68°
2026-05-04 22:14 40.61814 -73.83495 34230 ft 417 kts 68°
2026-05-04 22:15 40.62788 -73.79993 33648 ft 395 kts 60°
2026-05-04 22:15 40.64019 -73.76873 33130 ft 374 kts 53°
2026-05-04 22:15 40.65424 -73.74141 32656 ft 356 kts 45°
2026-05-04 22:15 40.67010 -73.71688 32193 ft 340 kts 40°
2026-05-04 22:16 40.68573 -73.69443 31753 ft 335 kts 40°
2026-05-04 22:16 40.70037 -73.67304 31335 ft 333 kts 40°
2026-05-04 22:16 40.71578 -73.65034 30899 ft 331 kts 40°
2026-05-04 22:16 40.73113 -73.62781 30463 ft 331 kts 40°
2026-05-04 22:17 40.74667 -73.60512 30038 ft 336 kts 40°
2026-05-04 22:17 40.76236 -73.58214 29556 ft 339 kts 40°
2026-05-04 22:17 40.77815 -73.55892 29105 ft 340 kts 40°
2026-05-04 22:17 40.79412 -73.53548 28651 ft 347 kts 40°
2026-05-04 22:18 40.81055 -73.51143 28186 ft 358 kts 41°
2026-05-04 22:18 40.82745 -73.48658 27709 ft 368 kts 41°
2026-05-04 22:18 40.84474 -73.46109 27212 ft 376 kts 41°
2026-05-04 22:18 40.86226 -73.43517 26958 ft 377 kts 41°
2026-05-04 22:19 40.87957 -73.40951 26940 ft 372 kts 41°
2026-05-04 22:19 40.89678 -73.38407 26937 ft 371 kts 41°
2026-05-04 22:19 40.91408 -73.35857 26936 ft 371 kts 41°
2026-05-04 22:19 40.93129 -73.33322 26934 ft 371 kts 41°
2026-05-04 22:20 40.94877 -73.30752 26933 ft 379 kts 41°
2026-05-04 22:20 40.96645 -73.28140 26942 ft 383 kts 41°
2026-05-04 22:20 40.98425 -73.25495 26913 ft 386 kts 42°
2026-05-04 22:20 41.00218 -73.22830 26815 ft 390 kts 42°
2026-05-04 22:21 41.02026 -73.20131 26529 ft 393 kts 42°
2026-05-04 22:21 41.03842 -73.17415 26200 ft 395 kts 42°
2026-05-04 22:21 41.05678 -73.14689 25845 ft 394 kts 42°
2026-05-04 22:21 41.07495 -73.12003 25495 ft 390 kts 42°
2026-05-04 22:22 41.09291 -73.09331 25157 ft 386 kts 42°
2026-05-04 22:22 41.11067 -73.06673 24824 ft 382 kts 42°
2026-05-04 22:22 41.12824 -73.04045 24484 ft 378 kts 42°
2026-05-04 22:22 41.14567 -73.01444 24161 ft 375 kts 42°
2026-05-04 22:23 41.16287 -72.98872 23825 ft 369 kts 42°
2026-05-04 22:23 41.17972 -72.96345 23520 ft 365 kts 42°
2026-05-04 22:23 41.19652 -72.93831 23164 ft 363 kts 42°
2026-05-04 22:23 41.21247 -72.91244 22930 ft 363 kts 51°
2026-05-04 22:24 41.22426 -72.88282 22914 ft 359 kts 58°
2026-05-04 22:24 41.23519 -72.85325 22924 ft 352 kts 58°
2026-05-04 22:24 41.24617 -72.82437 22913 ft 347 kts 57°
2026-05-04 22:24 41.25719 -72.79607 22909 ft 346 kts 57°
2026-05-04 22:25 41.26830 -72.76745 22911 ft 350 kts 57°
2026-05-04 22:25 41.27935 -72.73837 22925 ft 354 kts 57°
2026-05-04 22:25 41.29052 -72.70892 22913 ft 362 kts 57°
2026-05-04 22:25 41.30199 -72.67881 22924 ft 367 kts 58°
2026-05-04 22:26 41.31360 -72.64821 22923 ft 371 kts 58°
2026-05-04 22:26 41.32533 -72.61734 22936 ft 374 kts 58°
2026-05-04 22:26 41.33714 -72.58630 22927 ft 377 kts 58°
2026-05-04 22:26 41.34900 -72.55508 22923 ft 379 kts 58°
2026-05-04 22:27 41.36088 -72.52372 22920 ft 380 kts 58°
2026-05-04 22:27 41.37267 -72.49257 22932 ft 381 kts 58°
2026-05-04 22:27 41.38466 -72.46088 22920 ft 382 kts 58°
2026-05-04 22:27 41.39659 -72.42932 22583 ft 376 kts 58°
2026-05-04 22:28 41.40815 -72.39860 22206 ft 367 kts 58°
2026-05-04 22:28 41.41948 -72.36854 21838 ft 359 kts 58°
2026-05-04 22:28 41.43062 -72.33903 21466 ft 353 kts 58°
2026-05-04 22:28 41.44158 -72.31003 21097 ft 348 kts 58°
2026-05-04 22:29 41.45234 -72.28150 20936 ft 338 kts 58°
2026-05-04 22:29 41.46265 -72.25396 20923 ft 325 kts 58°
2026-05-04 22:29 41.47259 -72.22741 20915 ft 315 kts 57°
2026-05-04 22:29 41.48230 -72.20154 20910 ft 307 kts 57°
2026-05-04 22:30 41.49173 -72.17600 20906 ft 311 kts 58°
2026-05-04 22:30 41.50143 -72.14943 20913 ft 326 kts 58°
2026-05-04 22:30 41.51155 -72.12168 20780 ft 340 kts 58°
2026-05-04 22:30 41.52203 -72.09303 20378 ft 346 kts 59°
2026-05-04 22:31 41.53262 -72.06400 19984 ft 350 kts 59°
2026-05-04 22:31 41.54320 -72.03499 19604 ft 353 kts 59°
2026-05-04 22:31 41.55395 -72.00548 19213 ft 354 kts 59°
2026-05-04 22:31 41.56345 -71.97494 18810 ft 357 kts 64°
2026-05-04 22:32 41.57262 -71.94403 18426 ft 357 kts 63°
2026-05-04 22:32 41.58201 -71.91334 18062 ft 357 kts 63°
2026-05-04 22:32 41.59132 -71.88262 17625 ft 356 kts 64°
2026-05-04 22:32 41.60043 -71.85187 17195 ft 355 kts 64°
2026-05-04 22:33 41.60955 -71.82078 16774 ft 354 kts 64°
2026-05-04 22:33 41.62156 -71.79313 16345 ft 343 kts 46°
2026-05-04 22:33 41.63741 -71.77056 15911 ft 323 kts 39°
2026-05-04 22:33 41.65407 -71.75162 15500 ft 306 kts 28°
2026-05-04 22:34 41.67234 -71.73836 15093 ft 293 kts 20°
2026-05-04 22:34 41.69056 -71.72624 14565 ft 292 kts 22°
2026-05-04 22:34 41.70807 -71.71230 14026 ft 293 kts 27°
2026-05-04 22:34 41.72496 -71.69711 13475 ft 292 kts 28°
2026-05-04 22:35 41.74189 -71.68238 12882 ft 289 kts 26°
2026-05-04 22:35 41.75893 -71.66838 12308 ft 285 kts 25°
2026-05-04 22:35 41.77543 -71.65450 12088 ft 273 kts 29°
2026-05-04 22:35 41.78760 -71.63554 12065 ft 271 kts 59°
2026-05-04 22:36 41.79445 -71.61276 12202 ft 254 kts 56°
2026-05-04 22:36 41.80521 -71.59415 12306 ft 252 kts 37°
2026-05-04 22:36 41.81855 -71.57874 12357 ft 259 kts 35°
2026-05-04 22:36 41.83263 -71.56253 12105 ft 274 kts 33°
2026-05-04 22:37 41.84742 -71.54611 12068 ft 277 kts 33°
2026-05-04 22:37 41.86239 -71.52961 12069 ft 279 kts 33°
2026-05-04 22:37 41.87746 -71.51301 11972 ft 283 kts 33°
2026-05-04 22:37 41.89292 -71.49603 11590 ft 288 kts 33°
2026-05-04 22:38 41.90824 -71.47919 11217 ft 288 kts 33°
2026-05-04 22:38 41.92388 -71.46196 10844 ft 287 kts 33°
2026-05-04 22:38 41.93911 -71.44513 10475 ft 286 kts 33°
2026-05-04 22:38 41.95439 -71.42813 10110 ft 285 kts 33°
2026-05-04 22:39 41.96469 -71.41661 9864 ft 284 kts 33°
2026-05-04 22:39 41.98136 -71.38881 9329 ft 294 kts 53°
2026-05-04 22:39 41.98821 -71.37270 9057 ft 294 kts 55°
2026-05-04 22:39 41.99798 -71.34862 8662 ft 293 kts 56°
2026-05-04 22:40 42.00770 -71.32444 8259 ft 292 kts 56°
2026-05-04 22:40 42.01741 -71.30042 7874 ft 292 kts 56°
2026-05-04 22:40 42.02699 -71.27670 7473 ft 291 kts 56°
2026-05-04 22:40 42.03665 -71.25299 7143 ft 286 kts 56°
2026-05-04 22:41 42.04607 -71.22990 7052 ft 281 kts 56°
2026-05-04 22:41 42.05553 -71.20682 7031 ft 282 kts 56°
2026-05-04 22:41 42.06504 -71.18364 7025 ft 283 kts 56°
2026-05-04 22:41 42.07452 -71.16048 7029 ft 283 kts 56°
2026-05-04 22:42 42.08407 -71.13719 7032 ft 284 kts 56°
2026-05-04 22:42 42.09374 -71.11385 7033 ft 286 kts 56°
2026-05-04 22:42 42.10344 -71.09046 7028 ft 287 kts 56°
2026-05-04 22:42 42.11316 -71.06698 7032 ft 287 kts 56°
2026-05-04 22:43 42.12163 -71.04246 7034 ft 290 kts 63°
2026-05-04 22:43 42.12888 -71.01681 6833 ft 293 kts 65°
2026-05-04 22:43 42.13578 -70.99129 6585 ft 287 kts 66°
2026-05-04 22:43 42.14246 -70.96615 6339 ft 283 kts 66°
2026-05-04 22:44 42.14894 -70.94147 6080 ft 273 kts 66°
2026-05-04 22:44 42.15524 -70.91745 5813 ft 270 kts 66°
2026-05-04 22:44 42.16156 -70.89371 5566 ft 270 kts 66°
2026-05-04 22:44 42.16800 -70.86971 5314 ft 274 kts 66°
2026-05-04 22:45 42.17454 -70.84564 5055 ft 272 kts 66°
2026-05-04 22:45 42.18779 -70.79822 4549 ft 273 kts 65°
2026-05-04 22:45 42.19637 -70.77563 4285 ft 268 kts 45°
2026-05-04 22:46 42.21141 -70.76234 3948 ft 254 kts 11°
2026-05-04 22:46 42.22811 -70.76143 3566 ft 232 kts 348°
2026-05-04 22:46 42.24370 -70.76471 3187 ft 218 kts 344°
2026-05-04 22:46 42.25813 -70.76813 2796 ft 204 kts 344°
2026-05-04 22:47 42.27160 -70.77129 2503 ft 189 kts 344°
2026-05-04 22:47 42.28417 -70.77413 2199 ft 177 kts 344°
2026-05-04 22:47 42.29588 -70.77660 2066 ft 167 kts 344°
2026-05-04 22:47 42.30737 -70.77906 2028 ft 164 kts 343°
2026-05-04 22:48 42.31811 -70.78114 2012 ft 159 kts 344°
2026-05-04 22:48 42.32894 -70.78309 2014 ft 148 kts 344°
2026-05-04 22:48 42.33901 -70.78470 2010 ft 146 kts 345°
2026-05-04 22:48 42.34909 -70.78656 2013 ft 147 kts 343°
2026-05-04 22:49 42.35930 -70.78825 2004 ft 148 kts 344°
2026-05-04 22:49 42.36812 -70.79315 2020 ft 134 kts 303°
2026-05-04 22:49 42.37033 -70.80538 2010 ft 138 kts 274°
2026-05-04 22:49 42.37101 -70.81790 2010 ft 127 kts 278°
2026-05-04 22:50 42.37315 -70.82950 2004 ft 128 kts 285°
2026-05-04 22:50 42.37566 -70.84126 2006 ft 131 kts 284°
2026-05-04 22:50 42.37812 -70.85287 2004 ft 120 kts 285°
2026-05-04 22:50 42.37951 -70.86351 1894 ft 113 kts 275°
2026-05-04 22:51 42.37945 -70.87385 1749 ft 110 kts 261°
2026-05-04 22:51 42.37794 -70.88432 1595 ft 114 kts 263°
2026-05-04 22:51 42.37630 -70.89441 1446 ft 103 kts 263°
2026-05-04 22:51 42.37467 -70.90434 1294 ft 114 kts 263°
2026-05-04 22:52 42.37291 -70.91491 1142 ft 117 kts 262°
2026-05-04 22:52 42.37119 -70.92498 985 ft 107 kts 261°
2026-05-04 22:52 42.36953 -70.93498 834 ft 113 kts 257°
2026-05-04 22:52 42.36770 -70.94513 686 ft 109 kts 253°
2026-05-04 22:53 42.36590 -70.95519 525 ft 109 kts 261°
2026-05-04 22:53 42.36480 -70.96524 430 ft 108 kts 251°
2026-05-04 22:53 42.36275 -70.97524 291 ft 115 kts 253°
2026-05-04 22:53 42.36082 -70.98586 94 ft 111 kts 251°
2026-05-04 22:54 42.35907 -70.99485 28 ft 86 kts 254°
2026-05-04 22:54 42.35814 -71.00242 180 ft 102 kts 257°
2026-05-04 22:54 42.35742 -71.01336 803 ft 111 kts 264°
2026-05-04 22:54 42.35874 -71.02321 1268 ft 104 kts 294°
2026-05-04 22:55 42.36326 -71.03199 1572 ft 124 kts 314°
2026-05-04 22:55 42.37132 -71.03755 1913 ft 138 kts 345°
2026-05-04 22:55 42.38057 -71.03439 1919 ft 141 kts 20°
2026-05-04 22:55 42.38832 -71.02784 1565 ft 130 kts 26°
2026-05-04 22:56 42.39344 -71.01739 1039 ft 140 kts 80°
2026-05-04 22:56 42.38972 -71.00543 668 ft 147 kts 153°
2026-05-04 22:56 42.38088 -71.00310 227 ft 118 kts 205°
2026-05-04 22:56 42.37423 -71.00650 27 ft 88 kts 200°
2026-05-04 22:57 42.36943 -71.00879 20 ft 61 kts 201°
2026-05-04 22:57 42.36734 -71.00986 20 ft 30 kts 200°
2026-05-04 22:57 42.36648 -71.01102 20 ft 14 kts 283°
2026-05-04 22:57 42.36666 -71.01196 20 ft 8 kts 284°
2026-05-04 22:58 42.36690 -71.01250 20 ft 5 kts 305°
2026-05-04 22:58 42.36692 -71.01253 20 ft 0 kts 305°
2026-05-04 22:58 42.36695 -71.01254 20 ft 1 kts 347°
2026-05-04 22:58 42.36707 -71.01248 20 ft 8 kts 19°
2026-05-04 22:59 42.36771 -71.01253 20 ft 12 kts 334°
2026-05-04 22:59 42.36836 -71.01332 20 ft 13 kts 318°
2026-05-04 22:59 42.36904 -71.01422 20 ft 10 kts 314°
2026-05-04 22:59 42.36950 -71.01485 20 ft 9 kts 312°
2026-05-04 23:00 42.37003 -71.01562 20 ft 13 kts 314°
2026-05-04 23:00 42.37079 -71.01664 20 ft 14 kts 314°
2026-05-04 23:00 42.37132 -71.01769 20 ft 14 kts 302°
2026-05-04 23:00 42.37176 -71.01859 20 ft 12 kts 303°
2026-05-04 23:01 42.37217 -71.01946 20 ft 7 kts 299°
2026-05-04 23:01 42.37248 -71.02020 20 ft 10 kts 313°
2026-05-04 23:01 42.37297 -71.02085 20 ft 10 kts 316°
2026-05-04 23:01 42.37341 -71.02095 20 ft 6 kts 36°
2026-05-04 23:02 42.37380 -71.02049 20 ft 7 kts 43°
2026-05-04 23:02 42.37413 -71.02044 20 ft 3 kts 320°
2026-05-04 23:02 42.37418 -71.02051 20 ft 0 kts 315°